Location: Observatoire
(46.1952°N, 5.3391°E)
Time: 15:00:41
(UTC+01:00)

A-11 Canister half - Pass Details

Date: 18 February 2026
Orbit: 1513 x 1687 km, 47.2° (Epoch: 11 March)

Event Time Altitude Azimuth Distance (km) Brightness Sun altitude
Rises 21:24:44 0° 229° (SW) 4,931 12.0 -34.1°
Reaches altitude 10° 21:27:57 10° 226° (SW) 3,943 11.4 -34.6°
Enters shadow 21:35:57 54° 190° (S) 1,974 9.3 -35.9°
Maximum altitude 21:37:52 61° 149° (SSE) 1,848 - -36.2°
Drops below altitude 10° 21:47:35 10° 72° (ENE) 3,872 - -37.7°
Sets 21:50:43 0° 69° (ENE) 4,838 - -38.2°
